Belmar-Farmingdale, NJ

2:04 PM EDT on April 26, 2017 (GMT -0400)
Allaire

Weather History for KBLM - April, 2013

Change the Weather History Date:

Saturday, April 27, 2013

  Actual Average Record
Temperature  
Mean Temperature 53 °F -  
Max Temperature 62 °F 62 °F 75 °F (2011)
Min Temperature 44 °F 44 °F 37 °F (2001)
Degree Days  
Heating Degree Days 12    
Growing Degree Days 3 (Base 50)    
Moisture  
Dew Point 31 °F    
Average Humidity 44    
Maximum Humidity 71    
Minimum Humidity 27    
Precipitation  
Precipitation 0.00 in - - ()
Sea Level Pressure  
Sea Level Pressure 30.38 in    
Wind  
Wind Speed 6 mph (East)    
Max Wind Speed 13 mph    
Max Gust Speed 16 mph    
Visibility 10 miles    
Events      
Averages and records for this station are not official NWS values.
T = Trace of Precipitation, MM = Missing Value Source: NWS Daily Summary

Daily Weather History Graph

Daily Weather History Graph

Search for Another Location

Airport or City:

Trip Planner

Search our weather history database for the weather conditions in past years. The results will help you decide how hot, cold, wet, or windy it might be!

Date:

Astronomy

Apr. 27, 2013 Rise Set
Actual Time 6:01 AM EDT 7:47 PM EDT
Civil Twilight 5:31 AM EDT 8:16 PM EDT
Nautical Twilight 4:56 AM EDT 8:52 PM EDT
Astronomical Twilight 4:19 AM EDT 9:30 PM EDT
Moon 10:14 PM EDT (4/27) 7:17 AM EDT (4/27)
Length of Visible Light 14h 44m
Length of Day
13h 46m
Waning Gibbous, 95% of the Moon is Illuminated
Apr 27
Waning Gibbous
May 2
Last Quarter
May 9
New
May 18
First Quarter
May 25
Full

Hourly Weather History & Observations

Time (EDT) Temp. Windchill Dew Point Humidity Pressure Visibility Wind Dir Wind Speed Gust Speed Precip Events Conditions
12:15 AM 46.4 °F 43.5 °F 35.6 °F 66% 30.40 in 10.0 mi WNW 5.8 mph - N/A   Clear
12:35 AM 46.4 °F 45.2 °F 35.6 °F 66% 30.41 in 10.0 mi WNW 3.5 mph - N/A   Clear
12:55 AM 46.4 °F 42.9 °F 35.6 °F 66% 30.41 in 10.0 mi West 6.9 mph - N/A   Clear
1:15 AM 44.6 °F 42.2 °F 35.6 °F 71% 30.41 in 10.0 mi WNW 4.6 mph - N/A   Clear
1:35 AM 44.6 °F 42.2 °F 35.6 °F 71% 30.41 in 10.0 mi NNW 4.6 mph - N/A   Clear
1:55 AM 44.6 °F 41.4 °F 35.6 °F 71% 30.41 in 10.0 mi NNW 5.8 mph - N/A   Clear
2:15 AM 44.6 °F 42.2 °F 35.6 °F 71% 30.40 in 10.0 mi NNW 4.6 mph - N/A   Clear
2:35 AM 44.6 °F 41.4 °F 35.6 °F 71% 30.40 in 10.0 mi NW 5.8 mph - N/A   Clear
2:55 AM 44.6 °F 42.2 °F 35.6 °F 71% 30.40 in 10.0 mi North 4.6 mph - N/A   Clear
3:15 AM 46.4 °F 43.5 °F 35.6 °F 66% 30.40 in 10.0 mi North 5.8 mph - N/A   Clear
3:35 AM 46.4 °F 44.3 °F 33.8 °F 62% 30.40 in 10.0 mi NNE 4.6 mph - N/A   Clear
3:55 AM 46.4 °F 44.3 °F 33.8 °F 62% 30.40 in 10.0 mi NNE 4.6 mph - N/A   Clear
4:15 AM 46.4 °F 44.3 °F 33.8 °F 62% 30.40 in 10.0 mi NNE 4.6 mph - N/A   Clear
4:35 AM 46.4 °F 45.2 °F 33.8 °F 62% 30.40 in 10.0 mi North 3.5 mph - N/A   Clear
4:55 AM 44.6 °F 41.4 °F 33.8 °F 66% 30.40 in 10.0 mi NNE 5.8 mph - N/A   Clear
5:15 AM 46.4 °F 44.3 °F 32.0 °F 57% 30.40 in 10.0 mi NNE 4.6 mph - N/A   Clear
5:35 AM 46.4 °F - 32.0 °F 57% 30.40 in 10.0 mi Calm Calm - N/A   Clear
5:55 AM 44.6 °F 42.2 °F 32.0 °F 61% 30.40 in 10.0 mi North 4.6 mph - N/A   Clear
6:15 AM 46.4 °F 44.3 °F 30.2 °F 53% 30.41 in 10.0 mi NNE 4.6 mph - N/A   Clear
6:35 AM 46.4 °F 44.3 °F 30.2 °F 53% 30.41 in 10.0 mi NNE 4.6 mph - N/A   Clear
6:55 AM 46.4 °F 45.2 °F 30.2 °F 53% 30.42 in 10.0 mi NNE 3.5 mph - N/A   Clear
7:15 AM 48.2 °F - 32.0 °F 54% 30.42 in 10.0 mi NNE 4.6 mph - N/A   Clear
7:35 AM 50.0 °F - 32.0 °F 50% 30.42 in 10.0 mi NNE 5.8 mph - N/A   Clear
7:55 AM 51.8 °F - 30.2 °F 44% 30.43 in 10.0 mi NNE 6.9 mph - N/A   Clear
8:15 AM 51.8 °F - 30.2 °F 44% 30.43 in 10.0 mi NE 5.8 mph - N/A   Clear
8:35 AM 53.6 °F - 28.4 °F 38% 30.43 in 10.0 mi NNE 8.1 mph - N/A   Clear
8:55 AM 55.4 °F - 28.4 °F 36% 30.43 in 10.0 mi NE 9.2 mph - N/A   Clear
9:15 AM 55.4 °F - 28.4 °F 36% 30.43 in 10.0 mi NNE 6.9 mph - N/A   Clear
9:35 AM 55.4 °F - 28.4 °F 36% 30.43 in 10.0 mi NE 6.9 mph - N/A   Clear
9:55 AM 57.2 °F - 28.4 °F 33% 30.43 in 10.0 mi Calm Calm - N/A   Clear
10:15 AM 59.0 °F - 28.4 °F 31% 30.43 in 10.0 mi WSW 3.5 mph - N/A   Clear
10:35 AM 60.8 °F - 28.4 °F 29% 30.43 in 10.0 mi SW 3.5 mph - N/A   Clear
10:55 AM 60.8 °F - 28.4 °F 29% 30.42 in 10.0 mi NNE 3.5 mph - N/A   Clear
11:15 AM 60.8 °F - 28.4 °F 29% 30.42 in 10.0 mi Calm Calm - N/A   Clear
11:35 AM 62.6 °F - 28.4 °F 27% 30.42 in 10.0 mi NW 8.1 mph - N/A   Clear
11:55 AM 60.8 °F - 33.8 °F 36% 30.41 in 10.0 mi ESE 4.6 mph - N/A   Clear
12:15 PM 60.8 °F - 32.0 °F 34% 30.41 in 10.0 mi East 8.1 mph - N/A   Clear
12:35 PM 60.8 °F - 32.0 °F 34% 30.40 in 10.0 mi ESE 6.9 mph - N/A   Clear
12:55 PM 62.6 °F - 32.0 °F 32% 30.39 in 10.0 mi East 9.2 mph - N/A   Clear
1:15 PM 62.6 °F - 32.0 °F 32% 30.38 in 10.0 mi ESE 12.7 mph - N/A   Clear
1:35 PM 62.6 °F - 32.0 °F 32% 30.38 in 10.0 mi East 10.4 mph - N/A   Clear
1:55 PM 62.6 °F - 30.2 °F 30% 30.37 in 10.0 mi ESE 10.4 mph - N/A   Clear
2:15 PM 62.6 °F - 30.2 °F 30% 30.37 in 10.0 mi ESE 9.2 mph - N/A   Clear
2:35 PM 62.6 °F - 30.2 °F 30% 30.36 in 10.0 mi SSE 9.2 mph - N/A   Clear
2:55 PM 62.6 °F - 30.2 °F 30% 30.35 in 10.0 mi East 9.2 mph - N/A   Clear
3:15 PM 62.6 °F - 28.4 °F 27% 30.34 in 10.0 mi East 11.5 mph - N/A   Clear
3:35 PM 62.6 °F - 28.4 °F 27% 30.33 in 10.0 mi ESE 9.2 mph - N/A   Clear
3:55 PM 62.6 °F - 28.4 °F 27% 30.33 in 10.0 mi ESE 10.4 mph - N/A   Clear
4:15 PM 62.6 °F - 30.2 °F 30% 30.33 in 10.0 mi SE 9.2 mph - N/A   Clear
4:35 PM 62.6 °F - 28.4 °F 27% 30.33 in 10.0 mi ESE 10.4 mph - N/A   Clear
4:55 PM 62.6 °F - 28.4 °F 27% 30.33 in 10.0 mi SE 9.2 mph - N/A   Clear
5:15 PM 62.6 °F - 28.4 °F 27% 30.33 in 10.0 mi South 8.1 mph - N/A   Clear
5:35 PM 62.6 °F - 28.4 °F 27% 30.33 in 10.0 mi SSE 8.1 mph - N/A   Clear
5:55 PM 60.8 °F - 28.4 °F 29% 30.33 in 10.0 mi South 9.2 mph - N/A   Clear
6:15 PM 60.8 °F - 26.6 °F 27% 30.33 in 10.0 mi SSE 9.2 mph - N/A   Clear
6:35 PM 60.8 °F - 28.4 °F 29% 30.32 in 10.0 mi South 9.2 mph - N/A   Clear
6:55 PM 60.8 °F - 28.4 °F 29% 30.32 in 10.0 mi South 8.1 mph - N/A   Clear
7:15 PM 57.2 °F - 26.6 °F 31% 30.31 in 10.0 mi South 10.4 mph 16.1 mph N/A   Clear
7:35 PM 57.2 °F - 32.0 °F 38% 30.32 in 10.0 mi South 6.9 mph - N/A   Clear
7:55 PM 55.4 °F - 32.0 °F 41% 30.32 in 10.0 mi South 5.8 mph - N/A   Clear
8:15 PM 55.4 °F - 32.0 °F 41% 30.32 in 10.0 mi South 5.8 mph - N/A   Clear
8:35 PM 55.4 °F - 30.2 °F 38% 30.32 in 10.0 mi SSW 5.8 mph - N/A   Clear
8:55 PM 55.4 °F - 30.2 °F 38% 30.32 in 10.0 mi South 5.8 mph - N/A   Clear
9:15 PM 53.6 °F - 30.2 °F 41% 30.33 in 10.0 mi SSW 5.8 mph - N/A   Clear
9:35 PM 53.6 °F - 30.2 °F 41% 30.33 in 10.0 mi SSW 5.8 mph - N/A   Clear
9:55 PM 53.6 °F - 30.2 °F 41% 30.33 in 10.0 mi SSW 3.5 mph - N/A   Clear
10:15 PM 51.8 °F - 30.2 °F 44% 30.33 in 10.0 mi SSW 4.6 mph - N/A   Clear
10:35 PM 51.8 °F - 32.0 °F 47% 30.33 in 10.0 mi SSW 3.5 mph - N/A   Clear
10:55 PM 51.8 °F - 30.2 °F 44% 30.32 in 10.0 mi SSW 4.6 mph - N/A   Clear
11:15 PM 51.8 °F - 32.0 °F 47% 30.32 in 10.0 mi SSW 5.8 mph - N/A   Clear
11:35 PM 50.0 °F - 30.2 °F 47% 30.32 in 10.0 mi Calm Calm - N/A   Clear
11:55 PM 50.0 °F - 33.8 °F 54% 30.31 in 10.0 mi SW 3.5 mph - N/A   Clear